CamptonHillsWeather.com

Find the Weather for any City, State  
or Zipcode, or Country:

Campton Hills, IL Weather
Local Radar

Local Radar

Graphs, Details
Graphs and Gauges
Detailed Weather
Detailed Reports
Ajax Version (old)
Central Kane Co Summary
Davis Current Weather Graphs
Davis 24 Hour Weather History

CW3778 Data

Weather Underground
Maps
Temperature
Heat Index
Windchill
Humidity
Radar
Dew Point
Wind
Visibility
Visible Satellite
Satellite
Fronts
Snow Depth
Jet Stream
Flight Rules
Forecast Maps
Temperature Forecast
Maximum Temperature Forecast
Minimum Temperature Forecast
Dewpoint Forecast
Prevalent Weather
12Hr Probability of Precip.
Sky Cover
Health Maps
UV Forecast
Air Quality
Peak Air Quality Index
Weather Station
Davis Instruments Vantage Pro
Current Conditions [Select Refresh to Update]

Updated: 12:29am on 12/2/16

(location)
Currently:
34.9F

Clear
Overcast

High: 35.0 F< 
(12:11am
Low: 34.8 F 
(12:00am)
Wind: NW 1 mph
Calm
Gust: 4 mph
Today's High Wind: 5 mph (12:06am)
Humidity: 96%
Pressure: 30.05 in  (Steady
Pressure Rate: 0.014 in/hr
Dew Point: 33.9F
Wind Chill: 34.9 F
Heat Index (feels like): 41.5 F
Comfort Level: Cool
Temperature Rate:  -0.00F/hr
 
5 Day Forecast
 
Thu Fri Sat Sun Mon
Clear Clear Clear Clear Clear
Snow Cloudy Cloudy Snow Mostly Cloudy
39 38 36 38 42
31 29 29 29 32

Records and Normals
 
Temperature Forecast Normal Record
High 39 41 58
(2012)
Low 31 24 10
(2002)
 
Links
 
 
Weather Advisories
Full Advisory Text...
Weather Map

Web Cam

Almanac
 
Sunrise:  
7:04am
Moonrise: 
9:22am

Moon Phase:
5%

Sunset: 
4:23pm
Moonset:  
7:21pm
 Star Chart...
Rainfall Totals
Hourly Rain 0.01 in
Daily Rain: 0.00 in
Monthly Rain: 0.02 in
Yearly Rain: 33.47 in
Normal Rain, month to date: 1.63 in
Normal Rain, year to date: 31.29 in
Link to Village of Campton Hills Map

Link to Counties of Illinois Map

Local Weather Exchange Network
Station ID City 
(Click for Map Location)
Neighborhood 
(Click for History)
Last Update (Date & Time) Temperature
 ()
Dew
Point ()
Humidity 
(%)
Wind 
(mph)
from the Wind Gust 
(mph) 
Pressure(in) Hourly
Rain(in)
KILSAINT10 Saint Charles Saint Charles Burr Road 12/01 09:41:59 37.4 36.0 98 6 WSW 0 29.85 0.00
KILMALLA2 Mallard Lake South St. Charles 12/01 09:36:05 38.3 34.0 86 2 WNW 6 29.88 0.00
KILSTCHA1 St Charles CamptonHillsWeather.com Central Kane County 12/01 09:42:27 36.8 35.0 92 3 West 8 29.86 0.00
KILSAINT20 Saint Charles Knoll Creek Drive 12/01 09:40:33 38.3 35.0 87 0 North 0 29.82 0.00
KILSOUTH10 South Elgin East Thornwood Drive 12/01 09:40:33 37.2 34.0 88 0 North 0 29.83 0.00
KILSAINT7 Saint Charles Silver Glen 12/01 09:42:17 37.6 23.0 56 3 WSW 5 29.80 0.00
KILELBUR23 Elburn Elburn, IL 12/01 09:42:09 36.7 34.0 91 2 SW 0 29.83 0.00
KILSAINT15 Saint Charles Shoreline Drive 12/01 09:40:43 39.4 29.0 66 0 North 0 29.83 0.00
KILELBUR11 Elburn Cheval de Selle 12/01 09:41:59 36.2 34.0 93 3 NW 0 29.85 0.00
KILSTCHA14 St. Charles St. Charles Country Club 12/01 09:42:01 37.9 33.0 83 6 West 10 29.84 0.00
KILMAPLE6 Maple Park Lily Lake 12/01 09:41:50 36.1 36.0 99 11 SW 0 29.83 0.00
KILGENEV15 Geneva Fisher Farms 12/01 09:42:19 37.9 35.0 88 4 SE 0 29.84 0.00
KILSTCHA10 St. Charles Hunt Club 12/01 09:42:14 37.9 26.0 61 2 WSW 2 29.86 0.00
KILSAINT8 Saint Charles Near West Side Davis School Area 12/01 09:42:27 37.5 33.0 86 4 SW 0 29.85 0.00
KILGENEV3 Geneva Mill Creek (Blackberry Way) 12/01 09:42:21 37.9 35.0 90 5 WSW 9 29.88 0.00
KILELBUR10 Elburn Prairie Valley North 12/01 09:42:26 36.0 33.0 88 10 WNW 10 29.86 0.00
KILSOUTH5 South Elgin Concord Park 12/01 09:42:08 38.1 37.0 96 0 SSW 0 29.83 0.00
KILELGIN16 Elgin Providence Subdivision 12/01 09:42:25 37.4 34.0 88 0 NNW 0 29.85 0.00
KILSAINT9 Saint Charles Fox Chase 12/01 09:42:19 38.3 36.0 90 2 West 5 29.85 0.00
KILELGIN20 Elgin Williamsburg Drive 12/01 09:39:51 37.6 35.0 89 0 North 0 29.78 0.00
KILGENEV6 Geneva Dover Ridge 12/01 09:42:23 37.5 35.0 90 9 West 9 29.84 0.00
KILGENEV10 Geneva Southampton Drive 12/01 09:38:18 37.6 37.0 99 2 WNW 4 29.88 0.00
KILELBUR17 Elburn Elburn 12/01 09:42:19 37.4 36.0 95 9 WNW 10 29.87 0.00
KILGENEV8 Geneva Alexander Drive 12/01 09:36:54 33.8 30.0 85 0 North 0 29.29 0.00
KILGENEV2 Geneva Mill Creek 12/01 09:36:36 37.5 -55.0 0 3 WSW 12 29.80 0.00
MD7322 Elburn APRSWXNET 12/01 09:09:00 37.0 35.0 93 0 West 2 29.84 0.00
KILSTCHA8 St. Charles Ronzheimer Ave. & S. Tyler Rd. 12/01 09:42:22 37.5 35.0 89 14 WNW 15 29.84 0.00
KDPA Chicago DuPage Official Station 12/01 08:52:00 38.0 32.0 79 14 West --- 29.82 ---
KARR Aurora Official Station 12/01 08:52:00 38.0 34.0 86 16 West --- 29.84 ---
KDKB DeKalb Official Station 12/01 09:35:00 37.0 34.0 92 17 West --- 29.84 ---
KORD Chicago Official Station 12/01 08:51:00 38.0 33.0 83 13 West --- 29.81 ---
Full Advisory Text
No Warnings

Ambient Weather and Weather Underground
 Never base important decisions on this or any weather information obtained from the Internet
Updated Automatically by Ambient Weather's Virtual Weather Station  V13.01